Voltar ao catálogo

ATLAS 5 CENTAUR DEB

AtivoHEO
NORAD 44896·DEBRIS·🇺🇸 United States

Lançado Oct 17, 2018 de Cape Canaveral Space Force Station

Loading…

Próximas Passagens (próximas 24 horas)

TLE

EnvelhecendoSource: Space-Track

Época: Aug 28, 2026, 21:38 UTC

1 44896U 18079BK  26240.90150107 -.00000082  00000-0  00000-0 0  9994
2 44896  13.4465 337.0674 4626316  76.1624 329.6406  2.00757123 49167

Acompanhe ATLAS 5 CENTAUR DEB em tempo real com AllMySat

Download on the App Store